Tracking 19792 objects as of 16-Jul-2019
HD Live streaming from Space Station
objects crossing your sky now

THORAD DELTA 1 DEB

Track THORAD DELTA 1 DEB now!
10-day predictions


NORAD ID: 8397
Int'l Code: 1974-089BZ
Perigee: 928.6 km
Apogee: 945.1 km
Inclination: 101.8 °
Period: 103.6 minutes
Semi major axis: 7307 km
RCS: 0.0525 m2 (small)
Launch date: November 15, 1974
Source: United States (US)
Launch site: AIR FORCE WESTERN TEST RANGE (AFWTR)

Note: This is SATELLITE DEBRIS
aabbcc
Your satellite tracking list
Your tracking list is empty




NASA's NSSDC Master Catalog

Two Line Element Set (TLE):
1  8397U 74089BZ  19196.62549977 +.00003549 +00000-0 +29441-2 0  9993
2  8397 101.7573 116.5565 0011295 306.0995 173.6518 13.89683051153859
Source of the keplerian elements: AFSPC